Location: Arthez
(43.0833°N, 0.2500°W)
Time: 01:19:06
(UTC+00:00)

NOSS 3-1 (A) - Pass Details

Date: 01 June 2022
Orbit: 711 x 1501 km, 63.4° (Epoch: 21 May)

Event Time Altitude Azimuth Distance (km) Brightness Sun altitude
Rises 20:14:03 0° 323° (NW) 3,730 8.5 -6.8°
Reaches altitude 10° 20:17:17 10° 340° (NNW) 2,918 7.1 -7.3°
Maximum altitude 20:22:26 21° 27° (NNE) 2,407 5.7 -8.0°
Drops below altitude 10° 20:28:13 10° 73° (ENE) 3,339 6.0 -8.8°
Sets 20:32:14 0° 89° (E) 4,433 6.5 -9.3°
